Powrót do katalogu

FENGYUN 1C DEB

AktywnyPO
NORAD 33728·DEBRIS·🇨🇳 China

Wystrzelony May 10, 1999 z Taiyuan Satellite Launch Center

Loading…

Następne Przeloty (najbliższe 24 godziny)

TLE

ŚwieżeSource: Space-Track

Epoka: Sep 14, 2026, 05:33 UTC

1 33728U 99025DHR 26257.23140830  .00004308  00000-0  32208-3 0  9994
2 33728  98.9591 356.9855 0141133  48.1069 313.2086 14.95795529 24159

Śledź FENGYUN 1C DEB w czasie rzeczywistym z AllMySat

Download on the App Store